| time (UTC) | temp C | wind direction | speed KPH | gust KPH | rain 1hr cm | rain 24hr cm | rain mn cm | humidity % | barometer mb |
| 20260905183301 | 20 | 287 | 4.8 | 4.8 | 0.00 | 0.05 | 0.05 | 54 | 1020.3 |
| 20260905183035 | 20 | 225 | 0.0 | 4.8 | 0.00 | 0.05 | 0.05 | 53 | 1020.2 |
| 20260905182305 | 21 | 224 | 0.0 | 6.4 | 0.00 | 0.05 | 0.05 | 52 | 1020.2 |
| 20260905182032 | 21 | 326 | 0.0 | 6.4 | 0.00 | 0.05 | 0.05 | 52 | 1020.1 |
| 20260905181301 | 21 | 352 | 4.8 | 8.0 | 0.00 | 0.05 | 0.05 | 51 | 1020.1 |
| 20260905181034 | 21 | 330 | 1.6 | 9.7 | 0.00 | 0.05 | 0.05 | 51 | 1020.3 |
| 20260905180534 | 21 | 309 | 0.0 | 9.7 | 0.00 | 0.05 | 0.05 | 50 | 1020.1 |
| 20260905175801 | 21 | 306 | 3.2 | 11.3 | 0.00 | 0.05 | 0.05 | 50 | 1020.1 |
| 20260905175300 | 21 | 307 | 8.0 | 11.3 | 0.00 | 0.05 | 0.05 | 49 | 1019.8 |
| 20260905174801 | 21 | 269 | 1.6 | 11.3 | 0.00 | 0.05 | 0.05 | 49 | 1019.7 |
| 20260905174532 | 21 | 307 | 3.2 | 12.9 | 0.00 | 0.05 | 0.05 | 49 | 1019.8 |
| 20260905174035 | 21 | 298 | 8.0 | 14.5 | 0.00 | 0.05 | 0.05 | 48 | 1019.9 |
| 20260905173301 | 21 | 301 | 4.8 | 14.5 | 0.00 | 0.05 | 0.05 | 48 | 1019.8 |
| 20260905173032 | 22 | 318 | 9.7 | 17.7 | 0.00 | 0.05 | 0.05 | 47 | 1019.7 |
| 20260905172305 | 22 | 312 | 6.4 | 17.7 | 0.00 | 0.05 | 0.05 | 47 | 1019.5 |
| 20260905171801 | 22 | 8 | 3.2 | 16.1 | 0.00 | 0.05 | 0.05 | 46 | 1019.6 |
| 20260905171301 | 22 | 310 | 4.8 | 24.1 | 0.00 | 0.05 | 0.05 | 46 | 1019.4 |
| 20260905170801 | 22 | 345 | 1.6 | 25.7 | 0.00 | 0.05 | 0.05 | 45 | 1019.3 |
| 20260905170301 | 22 | 289 | 4.8 | 25.7 | 0.00 | 0.05 | 0.05 | 45 | 1019.4 |
| 20260905170036 | 22 | 305 | 12.9 | 12.9 | 0.00 | 0.05 | 0.05 | 46 | 1019.3 |
| 20260905165305 | 22 | 295 | 3.2 | 9.7 | 0.00 | 0.05 | 0.05 | 46 | 1019.7 |
| 20260905164801 | 22 | 249 | 0.0 | 9.7 | 0.00 | 0.05 | 0.05 | 47 | 1019.1 |
| 20260905164532 | 22 | 269 | 0.0 | 14.5 | 0.00 | 0.05 | 0.05 | 47 | 1019.1 |
| 20260905163801 | 22 | 301 | 4.8 | 14.5 | 0.00 | 0.05 | 0.05 | 46 | 1019.1 |
| 20260905163319 | 22 | 287 | 6.4 | 11.3 | 0.00 | 0.05 | 0.05 | 46 | 1019.5 |
| 20260905163311 | 22 | 39 | 3.2 | 11.3 | 0.00 | 0.05 | 0.05 | 46 | 1019.3 |
| 20260905162301 | 22 | 294 | 6.4 | 9.7 | 0.00 | 0.05 | 0.05 | 46 | 1019.3 |
| 20260905162036 | 22 | 324 | 6.4 | 11.3 | 0.00 | 0.05 | 0.05 | 46 | 1019.0 |
| 20260905161301 | 22 | 317 | 3.2 | 11.3 | 0.00 | 0.05 | 0.05 | 45 | 1019.1 |
| 20260905161052 | 23 | 140 | 3.2 | 8.0 | 0.00 | 0.05 | 0.05 | 43 | 1018.7 |
| 20260905160813 | 23 | 257 | 6.4 | 9.7 | 0.00 | 0.05 | 0.05 | 43 | 1018.8 |
| 20260905160035 | 23 | 311 | 6.4 | 8.0 | 0.00 | 0.05 | 0.05 | 42 | 1019.0 |
| 20260905155301 | 23 | 293 | 3.2 | 11.3 | 0.00 | 0.05 | 0.05 | 43 | 1019.1 |
| 20260905154801 | 23 | 295 | 4.8 | 20.9 | 0.00 | 0.05 | 0.05 | 43 | 1018.9 |
| 20260905154301 | 22 | 304 | 4.8 | 24.1 | 0.00 | 0.05 | 0.05 | 43 | 1019.1 |
| 20260905153801 | 23 | 303 | 9.7 | 30.6 | 0.00 | 0.05 | 0.05 | 42 | 1019.0 |
| 20260905153302 | 23 | 327 | 4.8 | 30.6 | 0.00 | 0.05 | 0.05 | 42 | 1018.8 |
| 20260905152802 | 23 | 331 | 9.7 | 27.4 | 0.00 | 0.05 | 0.05 | 41 | 1019.0 |
| 20260905152320 | 22 | 344 | 6.4 | 20.9 | 0.00 | 0.05 | 0.05 | 42 | 1018.9 |
| 20260905152311 | 22 | 312 | 12.9 | 20.9 | 0.00 | 0.05 | 0.05 | 41 | 1018.9 |
| 20260905151531 | 22 | 293 | 4.8 | 20.9 | 0.00 | 0.05 | 0.05 | 42 | 1018.9 |
| 20260905150801 | 23 | 328 | 4.8 | 16.1 | 0.00 | 0.05 | 0.05 | 41 | 1019.0 |
| 20260905150314 | 23 | 311 | 6.4 | 32.2 | 0.00 | 0.05 | 0.05 | 41 | 1018.9 |
| 20260905150306 | 23 | 321 | 9.7 | 19.3 | 0.00 | 0.05 | 0.05 | 41 | 1018.7 |
| 20260905145301 | 23 | 325 | 9.7 | 32.2 | 0.00 | 0.05 | 0.05 | 41 | 1018.8 |
| 20260905144801 | 23 | 320 | 17.7 | 29.0 | 0.00 | 0.05 | 0.05 | 40 | 1018.9 |
| 20260905144300 | 23 | 347 | 9.7 | 29.0 | 0.00 | 0.05 | 0.05 | 41 | 1018.9 |
| 20260905144033 | 23 | 336 | 14.5 | 30.6 | 0.00 | 0.05 | 0.05 | 41 | 1018.9 |
| 20260905143302 | 23 | 323 | 12.9 | 33.8 | 0.00 | 0.05 | 0.05 | 41 | 1018.9 |
| 20260905142801 | 23 | 339 | 6.4 | 33.8 | 0.00 | 0.05 | 0.05 | 41 | 1018.6 |
| 20260905142301 | 23 | 318 | 22.5 | 32.2 | 0.00 | 0.05 | 0.05 | 40 | 1018.7 |
| 20260905141800 | 23 | 323 | 6.4 | 20.9 | 0.00 | 0.05 | 0.05 | 41 | 1018.9 |
| 20260905141300 | 23 | 315 | 4.8 | 22.5 | 0.00 | 0.05 | 0.05 | 41 | 1018.9 |
| 20260905141035 | 23 | 332 | 9.7 | 29.0 | 0.00 | 0.05 | 0.05 | 41 | 1018.8 |
| 20260905140534 | 23 | 325 | 4.8 | 29.0 | 0.00 | 0.05 | 0.05 | 40 | 1018.9 |
| 20260905135803 | 23 | 297 | 9.7 | 25.7 | 0.00 | 0.05 | 0.05 | 39 | 1018.9 |
| 20260905135306 | 23 | 316 | 9.7 | 25.7 | 0.00 | 0.05 | 0.05 | 41 | 1018.8 |
| 20260905134800 | 23 | 311 | 17.7 | 20.9 | 0.00 | 0.05 | 0.05 | 40 | 1018.7 |
| 20260905134302 | 23 | 276 | 6.4 | 25.7 | 0.00 | 0.05 | 0.05 | 42 | 1018.7 |
| 20260905133801 | 23 | 298 | 8.0 | 25.7 | 0.00 | 0.05 | 0.05 | 41 | 1018.9 |
| 20260905133303 | 23 | 317 | 6.4 | 20.9 | 0.00 | 0.05 | 0.05 | 40 | 1019.3 |
| 20260905132801 | 23 | 306 | 9.7 | 24.1 | 0.00 | 0.05 | 0.05 | 41 | 1018.9 |
| 20260905132305 | 23 | 295 | 9.7 | 25.7 | 0.00 | 0.05 | 0.05 | 42 | 1018.9 |
| 20260905131802 | 23 | 332 | 3.2 | 25.7 | 0.00 | 0.05 | 0.05 | 42 | 1018.8 |
| 20260905131301 | 23 | 325 | 11.3 | 20.9 | 0.00 | 0.05 | 0.05 | 41 | 1018.8 |
| 20260905131032 | 23 | 349 | 3.2 | 14.5 | 0.00 | 0.05 | 0.05 | 42 | 1018.7 |
| 20260905130304 | 23 | 33 | 3.2 | 27.4 | 0.00 | 0.05 | 0.05 | 41 | 1018.9 |
| 20260905125802 | 23 | 309 | 8.0 | 27.4 | 0.00 | 0.05 | 0.05 | 42 | 1019.1 |
| 20260905125305 | 23 | 258 | 6.4 | 27.4 | 0.00 | 0.05 | 0.05 | 42 | 1018.9 |
| 20260905124801 | 23 | 321 | 19.3 | 24.1 | 0.00 | 0.05 | 0.05 | 41 | 1018.8 |
| 20260905124302 | 23 | 301 | 9.7 | 29.0 | 0.00 | 0.05 | 0.05 | 42 | 1018.9 |
| 20260905123816 | 22 | 321 | 14.5 | 20.9 | 0.00 | 0.05 | 0.05 | 45 | 1018.8 |
| 20260905123810 | 23 | 329 | 4.8 | 29.0 | 0.00 | 0.05 | 0.05 | 43 | 1018.9 |
| 20260905122802 | 22 | 315 | 4.8 | 25.7 | 0.00 | 0.05 | 0.05 | 46 | 1018.7 |
| 20260905122534 | 23 | 315 | 9.7 | 25.7 | 0.00 | 0.05 | 0.05 | 46 | 1018.8 |
| 20260905122026 | 23 | 333 | 3.2 | 20.9 | 0.00 | 0.05 | 0.05 | 44 | 1018.7 |
| 20260905121520 | 23 | 324 | 11.3 | 20.9 | 0.00 | 0.05 | 0.05 | 44 | 1019.1 |
| 20260905120742 | 23 | 352 | 3.2 | 25.7 | 0.00 | 0.05 | 0.05 | 44 | 1019.0 |
| 20260905120230 | 22 | 316 | 19.3 | 30.6 | 0.00 | 0.05 | 0.05 | 45 | 1019.0 |
| 20260905115729 | 22 | 314 | 4.8 | 30.6 | 0.00 | 0.05 | 0.05 | 47 | 1019.1 |
| 20260905115229 | 22 | 320 | 6.4 | 24.1 | 0.00 | 0.05 | 0.05 | 45 | 1019.4 |
| 20260905115005 | 22 | 313 | 4.8 | 24.1 | 0.00 | 0.05 | 0.05 | 47 | 1019.1 |
| 20260905114229 | 22 | 341 | 8.0 | 30.6 | 0.00 | 0.05 | 0.05 | 47 | 1019.3 |
| 20260905113728 | 22 | 324 | 16.1 | 32.2 | 0.00 | 0.05 | 0.05 | 46 | 1019.3 |
| 20260905113505 | 22 | 325 | 12.9 | 32.2 | 0.00 | 0.05 | 0.05 | 47 | 1019.3 |
| 20260905112731 | 22 | 333 | 20.9 | 30.6 | 0.00 | 0.05 | 0.05 | 47 | 1019.4 |
| 20260905112505 | 23 | 302 | 8.0 | 17.7 | 0.00 | 0.05 | 0.05 | 48 | 1019.6 |
| 20260905111732 | 22 | 305 | 9.7 | 24.1 | 0.00 | 0.05 | 0.05 | 49 | 1019.5 |
| 20260905111230 | 22 | 287 | 14.5 | 24.1 | 0.00 | 0.05 | 0.05 | 48 | 1019.4 |
| 20260905110730 | 22 | 317 | 8.0 | 12.9 | 0.00 | 0.05 | 0.05 | 50 | 1019.5 |
| 20260905110228 | 22 | 308 | 6.4 | 16.1 | 0.00 | 0.05 | 0.05 | 50 | 1019.4 |
| 20260905105729 | 21 | 351 | 4.8 | 17.7 | 0.00 | 0.05 | 0.05 | 51 | 1019.5 |
| 20260905105229 | 21 | 293 | 9.7 | 17.7 | 0.00 | 0.05 | 0.05 | 51 | 1019.5 |
| 20260905105006 | 22 | 338 | 4.8 | 17.7 | 0.00 | 0.05 | 0.05 | 50 | 1019.4 |
| 20260905104229 | 22 | 318 | 3.2 | 17.7 | 0.00 | 0.05 | 0.05 | 51 | 1019.4 |
| 20260905103746 | 21 | 302 | 6.4 | 16.1 | 0.00 | 0.05 | 0.05 | 53 | 1019.3 |
| 20260905103738 | 21 | 325 | 11.3 | 16.1 | 0.00 | 0.05 | 0.05 | 52 | 1019.3 |
| 20260905102729 | 21 | 218 | 0.0 | 12.9 | 0.00 | 0.05 | 0.05 | 58 | 1019.5 |
| 20260905102230 | 20 | 338 | 8.0 | 19.3 | 0.00 | 0.05 | 0.05 | 57 | 1019.5 |
| 20260905101729 | 20 | 326 | 6.4 | 19.3 | 0.00 | 0.05 | 0.05 | 60 | 1019.5 |
| 20260905101502 | 20 | 299 | 9.7 | 16.1 | 0.00 | 0.05 | 0.05 | 60 | 1019.6 |
| 20260905100729 | 20 | 286 | 4.8 | 17.7 | 0.00 | 0.05 | 0.05 | 63 | 1019.7 |
| 20260905100230 | 20 | 339 | 8.0 | 17.7 | 0.00 | 0.05 | 0.05 | 63 | 1019.7 |
| 20260905100004 | 20 | 308 | 3.2 | 24.1 | 0.00 | 0.05 | 0.05 | 65 | 1019.6 |
| 20260905095230 | 20 | 341 | 9.7 | 24.1 | 0.00 | 0.05 | 0.05 | 64 | 1019.7 |
| 20260905095002 | 20 | 322 | 11.3 | 17.7 | 0.00 | 0.05 | 0.05 | 66 | 1019.8 |
| 20260905094230 | 20 | 300 | 9.7 | 14.5 | 0.00 | 0.05 | 0.05 | 66 | 1019.9 |
| 20260905093729 | 20 | 224 | 1.6 | 8.0 | 0.00 | 0.05 | 0.05 | 66 | 1019.7 |
| 20260905093502 | 20 | 295 | 3.2 | 9.7 | 0.00 | 0.05 | 0.05 | 67 | 1019.9 |
| 20260905093002 | 20 | 334 | 6.4 | 9.7 | 0.00 | 0.05 | 0.05 | 67 | 1019.8 |
| 20260905092505 | 20 | 13 | 1.6 | 4.8 | 0.00 | 0.05 | 0.05 | 68 | 1020.2 |
| 20260905092008 | 20 | 256 | 0.0 | 6.4 | 0.00 | 0.05 | 0.05 | 68 | 1020.1 |
| 20260905091505 | 20 | 132 | 1.6 | 6.4 | 0.00 | 0.05 | 0.05 | 69 | 1020.2 |
| 20260905090733 | 19 | 0 | 0.0 | 6.4 | 0.00 | 0.05 | 0.05 | 72 | 1020.3 |
| 20260905090202 | 20 | 341 | 6.4 | 8.0 | 0.00 | 0.05 | 0.05 | 74 | 1020.2 |
| 20260905085705 | 18 | 283 | 3.2 | 8.0 | 0.00 | 0.05 | 0.05 | 72 | 1020.0 |
| 20260905085207 | 18 | 166 | 3.2 | 6.4 | 0.00 | 0.05 | 0.05 | 75 | 1020.0 |
| 20260905084658 | 18 | 58 | 1.6 | 6.4 | 0.00 | 0.05 | 0.05 | 76 | 1020.0 |
| 20260905084419 | 17 | 104 | 3.2 | 6.4 | 0.00 | 0.05 | 0.05 | 78 | 1020.0 |
| 20260905083919 | 17 | 231 | 4.8 | 6.4 | 0.00 | 0.05 | 0.05 | 80 | 1020.3 |
| 20260905083143 | 17 | 196 | 3.2 | 4.8 | 0.00 | 0.05 | 0.05 | 80 | 1020.1 |
| 20260905082644 | 17 | 39 | 1.6 | 4.8 | 0.00 | 0.05 | 0.05 | 81 | 1020.0 |
| 20260905082414 | 16 | 146 | 0.0 | 6.4 | 0.00 | 0.05 | 0.05 | 82 | 1020.3 |
| 20260905081644 | 16 | 146 | 3.2 | 6.4 | 0.00 | 0.05 | 0.05 | 82 | 1020.1 |
| 20260905081143 | 16 | 136 | 1.6 | 6.4 | 0.00 | 0.05 | 0.05 | 83 | 1020.3 |
| 20260905080644 | 16 | 124 | 3.2 | 4.8 | 0.00 | 0.05 | 0.05 | 84 | 1020.2 |
| 20260905080142 | 16 | 0 | 1.6 | 4.8 | 0.00 | 0.05 | 0.05 | 84 | 1020.0 |
| 20260905075645 | 16 | 21 | 0.0 | 3.2 | 0.00 | 0.05 | 0.05 | 86 | 1020.0 |
| 20260905075142 | 15 | 268 | 0.0 | 8.0 | 0.00 | 0.05 | 0.05 | 85 | 1019.9 |
| 20260905074928 | 15 | 210 | 3.2 | 6.4 | 0.00 | 0.05 | 0.05 | 85 | 1019.1 |
| 20260905074651 | 15 | 163 | 0.0 | 8.0 | 0.00 | 0.05 | 0.05 | 85 | 1019.7 |
| 20260905073920 | 15 | 239 | 1.6 | 6.4 | 0.00 | 0.05 | 0.05 | 86 | 1019.7 |
| 20260905073413 | 15 | 155 | 1.6 | 6.4 | 0.03 | 0.05 | 0.05 | 86 | 1018.9 |
| 20260905072643 | 15 | 312 | 0.0 | 6.4 | 0.03 | 0.05 | 0.05 | 86 | 1018.7 |
| 20260905072142 | 15 | 198 | 1.6 | 6.4 | 0.03 | 0.05 | 0.05 | 86 | 1018.9 |
| 20260905071916 | 15 | 248 | 0.0 | 6.4 | 0.03 | 0.05 | 0.05 | 86 | 1018.6 |
| 20260905071143 | 15 | 308 | 1.6 | 6.4 | 0.03 | 0.05 | 0.05 | 86 | 1018.7 |
| 20260905070644 | 15 | 346 | 0.0 | 17.7 | 0.03 | 0.05 | 0.05 | 85 | 1019.3 |
| 20260905070144 | 15 | 350 | 1.6 | 19.3 | 0.03 | 0.05 | 0.05 | 84 | 1018.8 |
| 20260905065644 | 15 | 337 | 9.7 | 19.3 | 0.03 | 0.00 | 0.05 | 84 | 1018.8 |
| 20260905065413 | 15 | 303 | 3.2 | 16.1 | 0.03 | 0.00 | 0.05 | 85 | 1019.0 |
| 20260905064915 | 15 | 302 | 3.2 | 6.4 | 0.05 | 0.00 | 0.05 | 86 | 1018.6 |
| 20260905064416 | 15 | 339 | 4.8 | 4.8 | 0.05 | 0.00 | 0.05 | 84 | 1018.5 |
| 20260905063919 | 15 | 174 | 1.6 | 4.8 | 0.05 | 0.00 | 0.05 | 84 | 1018.5 |
| 20260905063143 | 15 | 2 | 0.0 | 4.8 | 0.03 | 0.00 | 0.03 | 83 | 1018.8 |
| 20260905062916 | 15 | 72 | 1.6 | 6.4 | 0.00 | 0.00 | 0.00 | 82 | 1018.9 |
| 20260905062158 | 16 | 301 | 6.4 | 11.3 | 0.00 | 0.00 | 0.00 | 80 | 1019.1 |
| 20260905062151 | 16 | 243 | 0.0 | 6.4 | 0.00 | 0.00 | 0.00 | 81 | 1019.1 |
| 20260905061145 | 16 | 232 | 3.2 | 11.3 | 0.00 | 0.00 | 0.00 | 79 | 1019.4 |
| 20260905060645 | 16 | 347 | 4.8 | 12.9 | 0.00 | 0.00 | 0.00 | 79 | 1018.9 |
| 20260905060143 | 16 | 234 | 1.6 | 12.9 | 0.00 | 0.00 | 0.00 | 80 | 1018.9 |
| 20260905055657 | 16 | 6 | 8.0 | 16.1 | 0.00 | 0.00 | 0.00 | 80 | 1019.1 |
| 20260905055144 | 16 | 352 | 8.0 | 20.9 | 0.00 | 0.00 | 0.00 | 79 | 1019.0 |
| 20260905054643 | 16 | 337 | 8.0 | 20.9 | 0.00 | 0.00 | 0.00 | 76 | 1018.8 |
| 20260905054143 | 17 | 116 | 3.2 | 8.0 | 0.00 | 0.00 | 0.00 | 80 | 1018.9 |
| 20260905053645 | 16 | 59 | 3.2 | 6.4 | 0.00 | 0.00 | 0.00 | 80 | 1018.9 |
| 20260905053142 | 17 | 129 | 3.2 | 6.4 | 0.00 | 0.00 | 0.00 | 82 | 1018.6 |
| 20260905052643 | 17 | 120 | 3.2 | 4.8 | 0.00 | 0.00 | 0.00 | 82 | 1018.7 |
| 20260905052414 | 17 | 98 | 0.0 | 4.8 | 0.00 | 0.00 | 0.00 | 82 | 1018.3 |
| 20260905051917 | 17 | 184 | 1.6 | 4.8 | 0.00 | 0.00 | 0.00 | 82 | 1018.1 |
| 20260905051142 | 17 | 198 | 0.0 | 6.4 | 0.00 | 0.00 | 0.00 | 81 | 1018.1 |
| 20260905050643 | 17 | 31 | 3.2 | 9.7 | 0.00 | 0.00 | 0.00 | 81 | 1017.8 |
| 20260905050142 | 17 | 327 | 3.2 | 9.7 | 0.00 | 0.00 | 0.00 | 81 | 1018.1 |
| 20260905045915 | 17 | 349 | 3.2 | 9.7 | 0.00 | 0.00 | 0.00 | 81 | 1018.1 |
| 20260905045143 | 17 | 216 | 0.0 | 16.1 | 0.00 | 0.00 | 0.00 | 82 | 1018.0 |
| 20260905044643 | 17 | 348 | 6.4 | 16.1 | 0.00 | 0.00 | 0.00 | 81 | 1017.9 |
| 20260905044145 | 17 | 325 | 3.2 | 9.7 | 0.00 | 0.00 | 0.00 | 82 | 1017.8 |
| 20260905043644 | 17 | 316 | 3.2 | 9.7 | 0.00 | 0.00 | 0.00 | 81 | 1017.5 |
| 20260905043158 | 17 | 316 | 3.2 | 9.7 | 0.00 | 0.00 | 0.00 | 80 | 1017.3 |
| 20260905043152 | 17 | 81 | 1.6 | 9.7 | 0.00 | 0.00 | 0.00 | 81 | 1017.4 |
| 20260905042143 | 17 | 204 | 3.2 | 12.9 | 0.00 | 0.00 | 0.00 | 79 | 1017.3 |
| 20260905041645 | 17 | 18 | 4.8 | 12.9 | 0.00 | 0.00 | 0.00 | 78 | 1017.3 |
| 20260905041142 | 18 | 306 | 3.2 | 16.1 | 0.00 | 0.00 | 0.00 | 78 | 1017.2 |
| 20260905040918 | 18 | 284 | 4.8 | 16.1 | 0.00 | 0.00 | 0.00 | 77 | 1016.8 |
| 20260905040144 | 18 | 351 | 8.0 | 24.1 | 0.00 | 0.00 | 0.00 | 76 | 1016.9 |
| 20260905035644 | 18 | 0 | 1.6 | 25.7 | 0.00 | 0.00 | 0.00 | 72 | 1016.9 |
| 20260905035143 | 18 | 326 | 24.1 | 24.1 | 0.00 | 0.00 | 0.00 | 69 | 1017.3 |
| 20260905034644 | 18 | 326 | 4.8 | 24.1 | 0.00 | 0.00 | 0.00 | 68 | 1016.5 |
| 20260905034143 | 18 | 320 | 6.4 | 24.1 | 0.00 | 0.00 | 0.00 | 68 | 1016.4 |
| 20260905033645 | 18 | 351 | 11.3 | 24.1 | 0.00 | 0.00 | 0.00 | 68 | 1016.1 |
| 20260905033142 | 19 | 318 | 17.7 | 25.7 | 0.00 | 0.00 | 0.00 | 67 | 1016.3 |
| 20260905032644 | 19 | 325 | 6.4 | 25.7 | 0.00 | 0.00 | 0.00 | 66 | 1015.9 |
| 20260905032415 | 19 | 317 | 9.7 | 22.5 | 0.00 | 0.00 | 0.00 | 65 | 1015.9 |
| 20260905031711 | 20 | 319 | 9.7 | 27.4 | 0.00 | 0.00 | 0.00 | 62 | 1016.3 |
| 20260905031704 | 20 | 347 | 8.0 | 27.4 | 0.00 | 0.00 | 0.00 | 63 | 1016.4 |
| 20260905030644 | 20 | 323 | 16.1 | 27.4 | 0.00 | 0.00 | 0.00 | 61 | 1016.0 |
| 20260905030155 | 20 | 318 | 9.7 | 27.4 | 0.00 | 0.00 | 0.00 | 60 | 1015.7 |
| 20260905025646 | 20 | 294 | 12.9 | 27.4 | 0.00 | 0.00 | 0.00 | 61 | 1015.6 |
| 20260905025137 | 20 | 319 | 12.9 | 20.9 | 0.00 | 0.00 | 0.00 | 62 | 1015.6 |
| 20260905024638 | 20 | 307 | 12.9 | 22.5 | 0.00 | 0.00 | 0.00 | 63 | 1015.4 |
| 20260905024416 | 20 | 346 | 3.2 | 22.5 | 0.00 | 0.00 | 0.00 | 63 | 1015.4 |
| 20260905023634 | 20 | 310 | 9.7 | 16.1 | 0.00 | 0.00 | 0.00 | 63 | 1015.3 |
| 20260905023404 | 20 | 288 | 8.0 | 16.1 | 0.00 | 0.00 | 0.00 | 63 | 1015.2 |
| 20260905022634 | 20 | 339 | 6.4 | 14.5 | 0.00 | 0.00 | 0.00 | 63 | 1015.3 |
| 20260905022148 | 20 | 242 | 3.2 | 19.3 | 0.00 | 0.00 | 0.00 | 64 | 1015.4 |
| 20260905022141 | 20 | 327 | 9.7 | 19.3 | 0.00 | 0.00 | 0.00 | 63 | 1015.4 |
| 20260905021147 | 20 | 273 | 6.4 | 14.5 | 0.00 | 0.00 | 0.00 | 64 | 1015.5 |
| 20260905020647 | 20 | 343 | 3.2 | 17.7 | 0.00 | 0.00 | 0.00 | 63 | 1015.0 |
| 20260905020642 | 20 | 295 | 8.0 | 16.1 | 0.00 | 0.00 | 0.00 | 64 | 1015.3 |
| 20260905015634 | 20 | 326 | 12.9 | 17.7 | 0.00 | 0.00 | 0.00 | 63 | 1014.6 |
| 20260905015133 | 20 | 329 | 9.7 | 24.1 | 0.00 | 0.00 | 0.00 | 63 | 1014.9 |
| 20260905014635 | 20 | 306 | 12.9 | 24.1 | 0.00 | 0.00 | 0.00 | 63 | 1015.1 |
| 20260905014133 | 20 | 310 | 8.0 | 24.1 | 0.00 | 0.00 | 0.00 | 63 | 1015.3 |
| 20260905013634 | 20 | 329 | 3.2 | 27.4 | 0.00 | 0.00 | 0.00 | 63 | 1014.9 |
| 20260905013133 | 21 | 319 | 19.3 | 27.4 | 0.00 | 0.00 | 0.00 | 63 | 1015.1 |
| 20260905012634 | 21 | 309 | 12.9 | 27.4 | 0.00 | 0.00 | 0.00 | 64 | 1014.8 |
| 20260905012133 | 21 | 9 | 8.0 | 32.2 | 0.00 | 0.00 | 0.00 | 65 | 1014.9 |
| 20260905011634 | 21 | 325 | 6.4 | 32.2 | 0.00 | 0.00 | 0.00 | 65 | 1014.8 |
| 20260905011132 | 21 | 336 | 9.7 | 35.4 | 0.00 | 0.00 | 0.00 | 65 | 1014.7 |
| 20260905010634 | 21 | 321 | 1.6 | 35.4 | 0.00 | 0.00 | 0.00 | 64 | 1014.6 |
| 20260905010135 | 21 | 333 | 20.9 | 38.6 | 0.00 | 0.00 | 0.00 | 64 | 1014.5 |
| 20260905005904 | 22 | 325 | 6.4 | 38.6 | 0.00 | 0.00 | 0.00 | 63 | 1013.8 |
| 20260905005133 | 23 | 330 | 33.8 | 37.0 | 0.00 | 0.00 | 0.00 | 58 | 1013.6 |
| 20260905004634 | 23 | 316 | 8.0 | 11.3 | 0.00 | 0.00 | 0.00 | 58 | 1013.2 |
| 20260905004132 | 23 | 299 | 3.2 | 8.0 | 0.00 | 0.00 | 0.00 | 56 | 1012.7 |
| 20260905003634 | 23 | 256 | 3.2 | 6.4 | 0.00 | 0.00 | 0.00 | 57 | 1012.5 |
| 20260905003133 | 23 | 307 | 3.2 | 6.4 | 0.00 | 0.00 | 0.00 | 58 | 1012.4 |
| 20260905002907 | 22 | 296 | 0.0 | 4.8 | 0.00 | 0.00 | 0.00 | 60 | 1012.4 |
| 20260905002134 | 22 | 284 | 0.0 | 3.2 | 0.00 | 0.00 | 0.00 | 63 | 1012.3 |
| 20260905001907 | 21 | 269 | 0.0 | 3.2 | 0.00 | 0.00 | 0.00 | 66 | 1012.2 |
| 20260905001133 | 21 | 258 | 1.6 | 6.4 | 0.00 | 0.00 | 0.00 | 68 | 1012.1 |
| 20260905000634 | 21 | 283 | 0.0 | 8.0 | 0.00 | 0.00 | 0.00 | 70 | 1012.2 |
| 20260905000133 | 21 | 293 | 0.0 | 8.0 | 0.00 | 0.00 | 0.00 | 74 | 1012.0 |
| 20260904235634 | 20 | 276 | 1.6 | 6.4 | 0.00 | 0.00 | 0.00 | 74 | 1012.0 |
| 20260904235132 | 20 | 292 | 1.6 | 6.4 | 0.00 | 0.00 | 0.00 | 73 | 1012.1 |
| 20260904234650 | 19 | 350 | 3.2 | 6.4 | 0.00 | 0.00 | 0.00 | 82 | 1012.1 |
| 20260904234645 | 19 | 311 | 3.2 | 6.4 | 0.00 | 0.00 | 0.00 | 77 | 1011.9 |
| 20260904233907 | 18 | 319 | 3.2 | 3.2 | 0.00 | 0.00 | 0.00 | 84 | 1012.1 |
| 20260904233133 | 18 | 321 | 0.0 | 1.6 | 0.00 | 0.00 | 0.00 | 84 | 1012.0 |
| 20260904232634 | 18 | 110 | 0.0 | 1.6 | 0.00 | 0.00 | 0.00 | 83 | 1012.1 |
| 20260904232406 | 18 | 127 | 1.6 | 3.2 | 0.00 | 0.00 | 0.00 | 83 | 1012.2 |
| 20260904231648 | 18 | 187 | 0.0 | 4.8 | 0.00 | 0.00 | 0.00 | 82 | 1012.0 |
| 20260904231642 | 18 | 187 | 0.0 | 4.8 | 0.00 | 0.00 | 0.00 | 82 | 1012.2 |
| 20260904230923 | 18 | 224 | 0.0 | 1.6 | 0.00 | 0.00 | 0.00 | 82 | 1012.0 |
| 20260904230915 | 18 | 240 | 0.0 | 1.6 | 0.00 | 0.00 | 0.00 | 82 | 1011.9 |
| 20260904225646 | 18 | 242 | 0.0 | 3.2 | 0.00 | 0.00 | 0.00 | 82 | 1012.0 |
| 20260904225640 | 18 | 152 | 0.0 | 1.6 | 0.00 | 0.00 | 0.00 | 82 | 1012.0 |
| 20260904224634 | 18 | 230 | 0.0 | 3.2 | 0.00 | 0.00 | 0.00 | 83 | 1011.9 |
| 20260904224404 | 18 | 315 | 0.0 | 3.2 | 0.00 | 0.00 | 0.00 | 82 | 1011.9 |
| 20260904223635 | 18 | 135 | 0.0 | 3.2 | 0.00 | 0.00 | 0.00 | 82 | 1011.8 |
| 20260904223146 | 18 | 142 | 0.0 | 3.2 | 0.00 | 0.00 | 0.00 | 82 | 1011.9 |
| 20260904223139 | 18 | 217 | 0.0 | 3.2 | 0.00 | 0.00 | 0.00 | 82 | 1011.9 |
| 20260904222134 | 18 | 142 | 0.0 | 3.2 | 0.00 | 0.00 | 0.00 | 81 | 1012.0 |
| 20260904221634 | 18 | 93 | 1.6 | 3.2 | 0.00 | 0.00 | 0.00 | 81 | 1011.8 |
| 20260904221133 | 18 | 146 | 3.2 | 3.2 | 0.00 | 0.00 | 0.00 | 82 | 1011.8 |
| 20260904220646 | 18 | 159 | 1.6 | 3.2 | 0.00 | 0.00 | 0.00 | 82 | 1012.0 |
| 20260904220133 | 18 | 196 | 0.0 | 4.8 | 0.00 | 0.00 | 0.00 | 81 | 1011.8 |
| 20260904215634 | 18 | 202 | 0.0 | 4.8 | 0.00 | 0.00 | 0.00 | 81 | 1012.0 |
| 20260904215133 | 18 | 163 | 0.0 | 3.2 | 0.00 | 0.00 | 0.00 | 81 | 1011.7 |
| 20260904214633 | 18 | 135 | 1.6 | 3.2 | 0.00 | 0.00 | 0.00 | 81 | 1011.8 |
| 20260904214134 | 18 | 140 | 1.6 | 3.2 | 0.00 | 0.00 | 0.00 | 81 | 1011.8 |
| 20260904213635 | 18 | 141 | 1.6 | 3.2 | 0.00 | 0.00 | 0.00 | 81 | 1011.9 |
| 20260904213132 | 18 | 169 | 0.0 | 3.2 | 0.00 | 0.00 | 0.00 | 82 | 1011.7 |
| 20260904212634 | 18 | 135 | 0.0 | 1.6 | 0.00 | 0.00 | 0.00 | 81 | 1011.9 |
| 20260904212405 | 18 | 146 | 0.0 | 1.6 | 0.00 | 0.00 | 0.00 | 81 | 1011.8 |
| 20260904211905 | 18 | 122 | 0.0 | 1.6 | 0.00 | 0.00 | 0.00 | 80 | 1011.8 |
| 20260904211132 | 18 | 246 | 0.0 | 3.2 | 0.00 | 0.00 | 0.00 | 80 | 1011.8 |
| 20260904210904 | 18 | 195 | 0.0 | 3.2 | 0.00 | 0.00 | 0.00 | 80 | 1012.0 |
| 20260904210132 | 18 | 242 | 1.6 | 3.2 | 0.00 | 0.00 | 0.00 | 80 | 1011.9 |
| 20260904205907 | 18 | 154 | 0.0 | 3.2 | 0.00 | 0.00 | 0.00 | 80 | 1011.8 |
| 20260904205138 | 18 | 161 | 1.6 | 3.2 | 0.00 | 0.00 | 0.00 | 79 | 1011.9 |
| 20260904204634 | 18 | 144 | 1.6 | 3.2 | 0.00 | 0.00 | 0.00 | 79 | 1011.8 |
| 20260904204134 | 18 | 163 | 3.2 | 3.2 | 0.00 | 0.00 | 0.00 | 79 | 1011.6 |
| 20260904203634 | 18 | 166 | 1.6 | 3.2 | 0.00 | 0.00 | 0.00 | 79 | 1011.9 |
| 20260904203449 | 19 | 338 | 0.0 | 4.8 | 0.00 | 0.00 | 0.00 | 78 | 1011.9 |
| 20260904203443 | 19 | 132 | 1.6 | 4.8 | 0.00 | 0.00 | 0.00 | 78 | 1011.9 |
| 20260904203439 | 19 | 159 | 3.2 | 3.2 | 0.00 | 0.00 | 0.00 | 78 | 1012.2 |
| 20260904203435 | 18 | 315 | 0.0 | 3.2 | 0.00 | 0.00 | 0.00 | 79 | 1012.1 |
| 20260904201133 | 19 | 179 | 0.0 | 1.6 | 0.00 | 0.00 | 0.00 | 78 | 1012.1 |
| 20260904200638 | 19 | 164 | 0.0 | 3.2 | 0.00 | 0.00 | 0.00 | 77 | 1012.2 |
| 20260904200137 | 20 | 135 | 0.0 | 3.2 | 0.00 | 0.00 | 0.00 | 77 | 1012.3 |
| 20260904195634 | 20 | 177 | 0.0 | 3.2 | 0.00 | 0.00 | 0.00 | 76 | 1012.3 |
| 20260904195132 | 20 | 224 | 0.0 | 1.6 | 0.00 | 0.00 | 0.00 | 75 | 1012.5 |
| 20260904194907 | 20 | 242 | 0.0 | 1.6 | 0.00 | 0.00 | 0.00 | 74 | 1012.7 |
| 20260904194134 | 20 | 180 | 0.0 | 1.6 | 0.00 | 0.00 | 0.00 | 73 | 1012.3 |
| 20260904193634 | 20 | 180 | 0.0 | 1.6 | 0.00 | 0.00 | 0.00 | 73 | 1012.3 |
| 20260904193145 | 21 | 209 | 0.0 | 1.6 | 0.00 | 0.00 | 0.00 | 70 | 1012.3 |
| 20260904193139 | 21 | 202 | 0.0 | 1.6 | 0.00 | 0.00 | 0.00 | 72 | 1012.5 |
| 20260904192135 | 21 | 247 | 0.0 | 1.6 | 0.00 | 0.00 | 0.00 | 73 | 1012.4 |
| 20260904191633 | 21 | 231 | 0.0 | 1.6 | 0.00 | 0.00 | 0.00 | 73 | 1012.4 |
| 20260904191405 | 21 | 224 | 0.0 | 1.6 | 0.00 | 0.00 | 0.00 | 70 | 1012.6 |
| 20260904190633 | 21 | 228 | 0.0 | 1.6 | 0.00 | 0.00 | 0.00 | 69 | 1012.3 |
| 20260904190131 | 21 | 166 | 0.0 | 3.2 | 0.00 | 0.00 | 0.00 | 68 | 1012.5 |
| 20260904185908 | 21 | 224 | 0.0 | 3.2 | 0.00 | 0.00 | 0.00 | 68 | 1012.4 |
| 20260904185406 | 21 | 191 | 1.6 | 1.6 | 0.00 | 0.00 | 0.00 | 67 | 1012.6 |
| 20260904184631 | 22 | 135 | 0.0 | 1.6 | 0.00 | 0.00 | 0.00 | 66 | 1012.4 |
| 20260904184130 | 22 | 129 | 0.0 | 1.6 | 0.00 | 0.00 | 0.00 | 65 | 1012.2 |
| 20260904183913 | 22 | 203 | 0.0 | 3.2 | 0.00 | 0.00 | 0.00 | 65 | 1012.4 |